Regional Weather Roundup
Issued by NWS Newport/Morehead, NC

Current Version | Previous Version | Text Only | Print | Product List | Glossary On
Versions: 1 2 3 4 5 6 7 8 9 10 11 12 13 14 15 16 17 18 19 20 21 22 23 24 25 26 27 28 29 30 31 32 33 34 35 36 37 38 39 40 41 42 43 44 45 46 47 48 49 50
000 ASUS42 KMHX 281812 RWRMHX WEATHER ROUNDUP FOR EASTERN NORTH CAROLINA NATIONAL WEATHER SERVICE NEWPORT/MOREHEAD CITY NC 200 PM EDT TUE JUL 28 2015 NOTE: "FAIR" INDICATES FEW OR NO CLOUDS BELOW 12,000 FEET WITH NO SIGNIFICANT WEATHER AND/OR OBSTRUCTIONS TO VISIBILITY NCZ015>017-031-032-045>047-102-103-281900- NORTH COAST CITY SKY/WX TMP DP RH WIND PRES REMARKS EDENTON N/A 86 70 58 S5 30.01F ELIZABETH CITY MOSUNNY 86 71 60 E8 30.01F KITTY HAWK PTCLDY 90 69 49 SE7 30.01F MANTEO MOSUNNY 84 70 62 SW10 30.02F $$ NCZ045>047-081-094-103-104-281900- CENTRAL COAST CITY SKY/WX TMP DP RH WIND PRES REMARKS FRISCO SUNNY 88 69 53 SE9 30.02S SWANQUARTER N/A 88 N/A N/A S10 29.97S $$ NCZ095-097-098-100-101-281900- SOUTHERN COAST CITY SKY/WX TMP DP RH WIND PRES REMARKS BEAUFORT SUNNY 85 71 63 VRB7 30.01S CEDAR ISLAND N/A 84 N/A N/A E8G14 30.06S JACKSONVILLE MOSUNNY 87 68 52 SE10 30.00F PINEY ISLAND CLEAR N/A N/A N/A E12 30.01F WILMINGTON MOSUNNY 86 70 58 E7 30.00F $$ NCZ011>013-027>030-043-044-078>080-089-090>093-098-281900- COASTAL PLAIN CITY SKY/WX TMP DP RH WIND PRES REMARKS AHOSKIE MOSUNNY 85 71 63 E5 30.00F CLINTON SUNNY 88 70 55 SE3 30.01F ELIZABETHTOWN SUNNY 88 67 49 SE5 30.00F GOLDSBORO MOSUNNY 87 71 58 SE6 29.99F GREENVILLE SUNNY 88 70 55 SE9 30.02F HAVELOCK MOSUNNY 89 68 49 E9 30.01F KENANSVILLE SUNNY 87 66 48 E6 30.02F KINSTON MOSUNNY 88 68 51 SE6 30.01F NEW BERN MOSUNNY 88 71 57 CALM 30.02F RICHLANDS PTSUNNY 88 68 51 SE9 30.00F ROCKY MOUNT PTSUNNY 90 70 51 VRB6 30.00F WASHINGTON SUNNY 86 67 52 E9 30.01F WHITEVILLE MOSUNNY 89 68 50 E12 30.00S $$ AMZ130-135-150-152-154-156-158-170-250-252-270-ANZ085-086-088-633-658-670-281900- MARINE OBSERVATIONS STATION/POSITION TIME TEMP WIND PRES WAVE SWELL AIR SEA DIR/SP/G HT/PER HT/PER (UTC) (F) (DEG/KT/KT) (MB) (FT/S) (FT/S) CHESAPEAKE LIGHT 1800 80 180/ 12/ 13 1016.7 64 E VA BEACH 1750 80 81 210/ 6/ 8 1016.4 2/11 2/11 DUCK 1700 82 71 120/ 8/ 9 1016.3 2 E DUCK 1711 81 N/A 2/11 2/11 OREGON INLET 1700 81 82 80/ 6/ 8 1016.9 13E OREGON INLT 1700 80 N/A 2/11 2/11 HATTERAS CG 1700 83 82 100/ 7/ 9 1016.3 DIAMOND BUOY NOT AVBL CAPE LOOKOUT 1800 82 80/ 10/ 11 1015.9 BEAUFORT LAB 1700 82 81 130/ 10/ 14 1015.7 30 SE NEW RVR IN NOT AVBL 27 SE WRIGHTSVLE 1700 79 82 100/ 14/ 16 N/A 5 SE WRIGHTSVLE NOT AVBL 225 S CAPE HAT 1750 80 82 220/ 21/ 25 1015.1 6/ 7 2/11 41 SE CHARLESTON 1750 84 84 60/ 12/ 14 1014.4 4/ 7 2/ 7 $$

USA.gov is the U.S. government's official web portal to all federal, state and local government web resources and services.